User: anonymous   Login
Location: Albany
(35.0000°S, 118.0000°E)
Time: 17:54:20
(UTC-05:00)
Language:

Cosmos 1758 Rocket - Orbit

View from above orbital plane
View from above orbital plane
View from above satellite
View from above satellite

Ground track
Ground track

The orbit data is extracted from the following two-line orbital elements,

1 16792U 86046B   18050.91817069 +.00000086 +00000-0 +75881-5 0  9992
2 16792 082.4855 329.3039 0023790 194.0368 212.5354 14.83167912690515
Epoch (UTC): 19 February 2018 22:02:09
Eccentricity: 0.0023790
inclination: 82.4855°
perigee height: 603 km
apogee height: 636 km
right ascension of ascending node: 329.3039°
argument of perigee: 194.0368°
revolutions per day: 14.83167912
mean anomaly at epoch: 212.5354°
orbit number at epoch: 69051

The dashed part of the orbit path shows where the satellite is in the earth's shadow,  

DLR